BTI3BP EETN-EDDB

Flight info

Callsign BTI3BP
Flight time 1h 47m
Altitude 36000
Route LONSA DCT TODNA DCT EVONA DCT DIPEB DCT GOSOT Z131 BANUB DCT USEDU/N0453F370 Z14 BEKBA T280 KETAP
Aircraft A319/M-SDE3FGHIRWY/LB1

Departure

Time 2026-05-06 15:53
Airport Lennart Meri Tallinn Airport (EETN)

Arrival

Time 2026-05-06 17:40
Airport Berlin Brandenburg Airport (EDDB)
Time Latitude Longitude Altitude Speed Heading
2026-05-06 15:20 59.41586 24.80278 162 ft 0 kts
2026-05-06 15:41 59.41578 24.80278 162 ft 3 kts
2026-05-06 15:41 59.41558 24.80274 162 ft 3 kts 13°
2026-05-06 15:42 59.41540 24.80262 162 ft 3 kts 37°
2026-05-06 15:42 59.41529 24.80239 162 ft 2 kts 83°
2026-05-06 15:42 59.41528 24.80229 162 ft 0 kts 91°
2026-05-06 15:46 59.41528 24.80239 162 ft 2 kts 91°
2026-05-06 15:46 59.41528 24.80304 162 ft 7 kts 91°
2026-05-06 15:46 59.41527 24.80399 162 ft 7 kts 93°
2026-05-06 15:46 59.41519 24.80492 162 ft 7 kts 99°
2026-05-06 15:47 59.41508 24.80596 162 ft 9 kts 99°
2026-05-06 15:47 59.41507 24.80719 162 ft 9 kts 90°
2026-05-06 15:47 59.41506 24.80847 162 ft 10 kts 90°
2026-05-06 15:47 59.41506 24.81017 162 ft 17 kts 90°
2026-05-06 15:48 59.41505 24.81291 162 ft 21 kts 90°
2026-05-06 15:48 59.41504 24.81579 162 ft 21 kts 90°
2026-05-06 15:48 59.41503 24.81867 162 ft 21 kts 90°
2026-05-06 15:48 59.41503 24.82151 162 ft 21 kts 90°
2026-05-06 15:49 59.41502 24.82444 162 ft 21 kts 90°
2026-05-06 15:49 59.41501 24.82728 162 ft 21 kts 90°
2026-05-06 15:49 59.41501 24.83022 162 ft 21 kts 90°
2026-05-06 15:49 59.41500 24.83309 162 ft 21 kts 90°
2026-05-06 15:50 59.41499 24.83600 162 ft 21 kts 90°
2026-05-06 15:50 59.41498 24.83893 162 ft 21 kts 90°
2026-05-06 15:50 59.41497 24.84186 162 ft 21 kts 90°
2026-05-06 15:50 59.41496 24.84480 162 ft 22 kts 90°
2026-05-06 15:51 59.41496 24.84775 162 ft 22 kts 90°
2026-05-06 15:51 59.41495 24.84945 162 ft 10 kts 91°
2026-05-06 15:51 59.41445 24.85011 162 ft 10 kts 179°
2026-05-06 15:51 59.41377 24.85013 162 ft 10 kts 179°
2026-05-06 15:52 59.41322 24.84988 162 ft 7 kts 259°
2026-05-06 15:52 59.41321 24.84853 162 ft 23 kts 270°
2026-05-06 15:52 59.41323 24.83990 162 ft 99 kts 270°
2026-05-06 15:52 59.41330 24.82220 164 ft 158 kts 270°
2026-05-06 15:53 59.41334 24.79979 690 ft 163 kts 272°
2026-05-06 15:53 59.41332 24.77753 1391 ft 163 kts 273°
2026-05-06 15:53 59.41057 24.75574 2010 ft 169 kts 242°
2026-05-06 15:53 59.40412 24.73626 2707 ft 171 kts 234°
2026-05-06 15:54 59.39709 24.71736 3396 ft 173 kts 233°
2026-05-06 15:54 59.38958 24.69723 3770 ft 194 kts 233°
2026-05-06 15:54 59.38123 24.67458 4081 ft 218 kts 233°
2026-05-06 15:54 59.37194 24.64910 4457 ft 242 kts 233°
2026-05-06 15:55 59.36178 24.62087 5005 ft 262 kts 234°
2026-05-06 15:55 59.35118 24.59109 5840 ft 270 kts 234°
2026-05-06 15:55 59.34042 24.56065 6760 ft 273 kts 235°
2026-05-06 15:55 59.32963 24.52993 7738 ft 274 kts 236°
2026-05-06 15:56 59.31886 24.49917 8748 ft 274 kts 236°
2026-05-06 15:56 59.30804 24.46830 9710 ft 276 kts 237°
2026-05-06 15:56 59.29706 24.43709 10425 ft 286 kts 237°
2026-05-06 15:56 59.28535 24.40368 10693 ft 310 kts 237°
2026-05-06 15:57 59.27282 24.36795 11116 ft 325 kts 237°
2026-05-06 15:57 59.25989 24.33130 11888 ft 329 kts 237°
2026-05-06 15:57 59.24698 24.29484 12698 ft 330 kts 237°
2026-05-06 15:57 59.23389 24.25790 13531 ft 332 kts 237°
2026-05-06 15:58 59.22070 24.22082 14294 ft 333 kts 237°
2026-05-06 15:58 59.20744 24.18364 15018 ft 334 kts 237°
2026-05-06 15:58 59.19415 24.14647 15744 ft 335 kts 237°
2026-05-06 15:58 59.18079 24.10910 16463 ft 336 kts 237°
2026-05-06 15:59 59.16742 24.07172 17193 ft 337 kts 237°
2026-05-06 15:59 59.15399 24.03419 17910 ft 338 kts 237°
2026-05-06 15:59 59.14053 23.99659 18575 ft 339 kts 237°
2026-05-06 15:59 59.12697 23.95882 19180 ft 341 kts 237°
2026-05-06 16:00 59.11334 23.92096 19752 ft 342 kts 237°
2026-05-06 16:00 59.09956 23.88273 20277 ft 346 kts 237°
2026-05-06 16:00 59.08571 23.84427 20855 ft 348 kts 236°
2026-05-06 16:00 59.07031 23.80783 21428 ft 351 kts 231°
2026-05-06 16:01 59.05420 23.77204 22001 ft 352 kts 231°
2026-05-06 16:01 59.03803 23.73621 22557 ft 353 kts 230°
2026-05-06 16:01 59.02177 23.70031 23103 ft 355 kts 230°
2026-05-06 16:01 59.00544 23.66433 23631 ft 356 kts 230°
2026-05-06 16:02 58.98897 23.62809 24069 ft 358 kts 230°
2026-05-06 16:02 58.97248 23.59184 24487 ft 359 kts 230°
2026-05-06 16:02 58.95593 23.55546 24894 ft 361 kts 230°
2026-05-06 16:02 58.93926 23.51883 25294 ft 363 kts 230°
2026-05-06 16:03 58.92253 23.48212 25697 ft 365 kts 230°
2026-05-06 16:03 58.90566 23.44517 26138 ft 366 kts 229°
2026-05-06 16:03 58.88868 23.40814 26480 ft 370 kts 229°
2026-05-06 16:03 58.87154 23.37080 26837 ft 372 kts 229°
2026-05-06 16:04 58.85453 23.33377 27211 ft 374 kts 229°
2026-05-06 16:04 58.83719 23.29611 27591 ft 376 kts 229°
2026-05-06 16:04 58.81975 23.25825 27972 ft 378 kts 229°
2026-05-06 16:04 58.80222 23.22028 28335 ft 380 kts 229°
2026-05-06 16:05 58.78457 23.18212 28714 ft 382 kts 229°
2026-05-06 16:05 58.76683 23.14383 29039 ft 384 kts 229°
2026-05-06 16:05 58.74900 23.10537 29375 ft 386 kts 228°
2026-05-06 16:05 58.73107 23.06673 29708 ft 388 kts 228°
2026-05-06 16:06 58.71307 23.02795 30033 ft 389 kts 228°
2026-05-06 16:06 58.69497 22.98899 30312 ft 391 kts 228°
2026-05-06 16:06 58.67675 22.94996 30539 ft 393 kts 227°
2026-05-06 16:06 58.65841 22.91084 30838 ft 394 kts 227°
2026-05-06 16:07 58.64006 22.87169 31202 ft 394 kts 227°
2026-05-06 16:07 58.62180 22.83275 31592 ft 392 kts 227°
2026-05-06 16:07 58.60353 22.79390 32001 ft 391 kts 227°
2026-05-06 16:07 58.58533 22.75530 32417 ft 389 kts 227°
2026-05-06 16:08 58.56724 22.71695 32841 ft 387 kts 227°
2026-05-06 16:08 58.54920 22.67881 33254 ft 386 kts 227°
2026-05-06 16:08 58.53121 22.64084 33669 ft 384 kts 227°
2026-05-06 16:08 58.51330 22.60312 34072 ft 382 kts 227°
2026-05-06 16:09 58.49540 22.56554 34398 ft 382 kts 227°
2026-05-06 16:09 58.47745 22.52785 34674 ft 383 kts 227°
2026-05-06 16:09 58.45948 22.49007 34844 ft 386 kts 227°
2026-05-06 16:09 58.44139 22.45202 35022 ft 388 kts 227°
2026-05-06 16:10 58.42317 22.41386 35262 ft 389 kts 227°
2026-05-06 16:10 58.40510 22.37614 35504 ft 390 kts 227°
2026-05-06 16:10 58.38677 22.33796 35750 ft 390 kts 227°
2026-05-06 16:10 58.36840 22.29966 35944 ft 391 kts 227°
2026-05-06 16:11 58.33163 22.22303 36030 ft 391 kts 227°
2026-05-06 16:11 58.29477 22.14685 35998 ft 391 kts 227°
2026-05-06 16:12 58.25785 22.07084 36000 ft 391 kts 227°
2026-05-06 16:12 58.22077 21.99471 35996 ft 393 kts 227°
2026-05-06 16:13 58.18367 21.91849 35999 ft 393 kts 227°
2026-05-06 16:13 58.14647 21.84248 35997 ft 393 kts 226°
2026-05-06 16:14 58.10918 21.76672 35997 ft 393 kts 226°
2026-05-06 16:14 58.07188 21.69107 35992 ft 393 kts 226°
2026-05-06 16:15 58.03457 21.61542 35971 ft 393 kts 226°
2026-05-06 16:15 58.00346 21.55267 35971 ft 394 kts 226°
2026-05-06 16:16 57.95983 21.46498 35973 ft 395 kts 226°
2026-05-06 16:16 57.92209 21.38964 35975 ft 395 kts 226°
2026-05-06 16:17 57.89065 21.32709 35971 ft 395 kts 226°
2026-05-06 16:17 57.85285 21.25197 35972 ft 395 kts 226°
2026-05-06 16:18 57.81509 21.17681 35946 ft 396 kts 226°
2026-05-06 16:18 57.77719 21.10169 35951 ft 397 kts 226°
2026-05-06 16:19 57.73903 21.02657 35986 ft 398 kts 225°
2026-05-06 16:19 57.70094 20.95199 35973 ft 399 kts 225°
2026-05-06 16:20 57.66252 20.87684 35972 ft 400 kts 225°
2026-05-06 16:20 57.62406 20.80187 35967 ft 400 kts 225°
2026-05-06 16:21 57.58551 20.72687 35948 ft 401 kts 225°
2026-05-06 16:21 57.54676 20.65174 35944 ft 403 kts 225°
2026-05-06 16:22 57.50775 20.57640 35951 ft 404 kts 225°
2026-05-06 16:22 57.46865 20.50113 35947 ft 405 kts 225°
2026-05-06 16:23 57.42940 20.42585 35953 ft 406 kts 225°
2026-05-06 16:23 57.39007 20.35068 35956 ft 406 kts 225°
2026-05-06 16:24 57.35065 20.27548 35937 ft 407 kts 225°
2026-05-06 16:24 57.31110 20.20009 35940 ft 408 kts 225°
2026-05-06 16:25 57.27156 20.12511 35946 ft 409 kts 225°
2026-05-06 16:25 57.23166 20.04985 35947 ft 410 kts 224°
2026-05-06 16:26 57.19166 19.97475 35946 ft 410 kts 224°
2026-05-06 16:26 57.15175 19.89944 35965 ft 411 kts 225°
2026-05-06 16:27 57.11350 19.82119 35954 ft 411 kts 227°
2026-05-06 16:27 57.07593 19.74182 35954 ft 411 kts 227°
2026-05-06 16:28 57.03800 19.66304 35956 ft 411 kts 227°
2026-05-06 16:28 56.99995 19.58547 35951 ft 412 kts 226°
2026-05-06 16:29 56.96151 19.50752 35953 ft 412 kts 226°
2026-05-06 16:29 56.92305 19.42975 35933 ft 412 kts 226°
2026-05-06 16:30 56.89101 19.36509 35935 ft 412 kts 226°
2026-05-06 16:30 56.84597 19.27420 35937 ft 413 kts 226°
2026-05-06 16:31 56.80732 19.19659 35939 ft 413 kts 226°
2026-05-06 16:31 56.76859 19.11922 35934 ft 413 kts 226°
2026-05-06 16:32 56.72979 19.04171 35936 ft 414 kts 226°
2026-05-06 16:32 56.69095 18.96433 35936 ft 414 kts 226°
2026-05-06 16:33 56.65201 18.88721 35963 ft 414 kts 226°
2026-05-06 16:34 56.59339 18.77165 35944 ft 414 kts 226°
2026-05-06 16:34 56.55432 18.69471 35941 ft 414 kts 226°
2026-05-06 16:35 56.51538 18.61843 35929 ft 415 kts 226°
2026-05-06 16:35 56.47602 18.54170 35926 ft 416 kts 226°
2026-05-06 16:36 56.43653 18.46491 35933 ft 416 kts 226°
2026-05-06 16:36 56.39704 18.38845 35931 ft 416 kts 226°
2026-05-06 16:37 56.35752 18.31195 35932 ft 416 kts 226°
2026-05-06 16:37 56.31797 18.23552 35928 ft 416 kts 226°
2026-05-06 16:38 56.27831 18.15947 35924 ft 417 kts 226°
2026-05-06 16:38 56.23859 18.08346 35928 ft 417 kts 226°
2026-05-06 16:39 56.19910 18.00803 35931 ft 417 kts 226°
2026-05-06 16:39 56.16229 17.92760 35944 ft 417 kts 232°
2026-05-06 16:40 56.12757 17.84396 35947 ft 418 kts 232°
2026-05-06 16:40 56.09282 17.76064 35930 ft 418 kts 232°
2026-05-06 16:41 56.05802 17.67741 35934 ft 418 kts 232°
2026-05-06 16:41 56.02308 17.59415 35936 ft 418 kts 232°
2026-05-06 16:42 55.98803 17.51106 35937 ft 418 kts 232°
2026-05-06 16:42 55.95301 17.42813 35940 ft 418 kts 232°
2026-05-06 16:43 55.91792 17.34530 35940 ft 418 kts 232°
2026-05-06 16:43 55.88276 17.26273 35936 ft 418 kts 232°
2026-05-06 16:44 55.84756 17.18035 35932 ft 418 kts 232°
2026-05-06 16:44 55.81255 17.09863 35966 ft 418 kts 232°
2026-05-06 16:45 55.77728 17.01670 35958 ft 417 kts 232°
2026-05-06 16:45 55.74201 16.93495 35949 ft 416 kts 232°
2026-05-06 16:46 55.70677 16.85346 35945 ft 417 kts 232°
2026-05-06 16:46 55.67147 16.77200 35924 ft 416 kts 232°
2026-05-06 16:47 55.63605 16.69058 35931 ft 416 kts 232°
2026-05-06 16:47 55.60059 16.60947 35924 ft 416 kts 232°
2026-05-06 16:48 55.56508 16.52865 35924 ft 416 kts 232°
2026-05-06 16:48 55.52976 16.44846 35933 ft 416 kts 232°
2026-05-06 16:49 55.49423 16.36782 35923 ft 416 kts 232°
2026-05-06 16:49 55.45859 16.28716 35923 ft 416 kts 232°
2026-05-06 16:50 55.42288 16.20688 35917 ft 416 kts 232°
2026-05-06 16:50 55.38717 16.12680 35923 ft 416 kts 232°
2026-05-06 16:51 55.35163 16.04729 35926 ft 416 kts 232°
2026-05-06 16:51 55.31579 15.96755 35919 ft 415 kts 231°
2026-05-06 16:52 55.27996 15.88791 35914 ft 416 kts 231°
2026-05-06 16:52 55.24405 15.80841 35905 ft 415 kts 231°
2026-05-06 16:53 55.20817 15.72921 35916 ft 415 kts 231°
2026-05-06 16:53 55.17230 15.65024 35915 ft 414 kts 231°
2026-05-06 16:54 55.13631 15.57151 35915 ft 414 kts 231°
2026-05-06 16:54 55.10034 15.49288 35935 ft 414 kts 231°
2026-05-06 16:55 55.06431 15.41430 35916 ft 415 kts 231°
2026-05-06 16:55 55.02818 15.33568 35913 ft 415 kts 231°
2026-05-06 16:56 54.99197 15.25722 35911 ft 416 kts 231°
2026-05-06 16:56 54.95585 15.17937 35918 ft 416 kts 231°
2026-05-06 16:57 54.91942 15.10111 35918 ft 416 kts 231°
2026-05-06 16:57 54.88297 15.02300 35920 ft 416 kts 231°
2026-05-06 16:58 54.84645 14.94497 35918 ft 416 kts 231°
2026-05-06 16:58 54.80983 14.86713 35920 ft 416 kts 229°
2026-05-06 16:59 54.76859 14.79682 35925 ft 416 kts 224°
2026-05-06 16:59 54.72658 14.72786 35935 ft 416 kts 224°
2026-05-06 17:00 54.68458 14.65897 35925 ft 416 kts 224°
2026-05-06 17:00 54.64256 14.59013 35915 ft 416 kts 224°
2026-05-06 17:01 54.60047 14.52163 35914 ft 416 kts 224°
2026-05-06 17:01 54.55847 14.45344 35917 ft 416 kts 224°
2026-05-06 17:02 54.51635 14.38522 35921 ft 416 kts 224°
2026-05-06 17:02 54.47392 14.31838 35918 ft 416 kts 218°
2026-05-06 17:03 54.42295 14.27138 35910 ft 419 kts 202°
2026-05-06 17:03 54.37728 14.24175 35902 ft 419 kts 203°
2026-05-06 17:04 54.32276 14.20607 35907 ft 419 kts 203°
2026-05-06 17:04 54.26834 14.17047 35906 ft 419 kts 203°
2026-05-06 17:05 54.21427 14.13524 35898 ft 418 kts 203°
2026-05-06 17:05 54.15976 14.09997 35752 ft 419 kts 203°
2026-05-06 17:05 54.13255 14.08238 35420 ft 418 kts 203°
2026-05-06 17:06 54.10521 14.06466 34571 ft 422 kts 203°
2026-05-06 17:06 54.07764 14.04680 33764 ft 425 kts 202°
2026-05-06 17:06 54.04988 14.02886 32809 ft 428 kts 202°
2026-05-06 17:06 54.02193 14.01085 31841 ft 431 kts 202°
2026-05-06 17:07 53.99380 13.99273 30889 ft 434 kts 201°
2026-05-06 17:07 53.96529 13.97517 30095 ft 434 kts 197°
2026-05-06 17:07 53.93590 13.96473 29378 ft 430 kts 187°
2026-05-06 17:07 53.90626 13.96082 28719 ft 425 kts 185°
2026-05-06 17:08 53.87694 13.95723 28051 ft 420 kts 185°
2026-05-06 17:08 53.84790 13.95356 27403 ft 416 kts 186°
2026-05-06 17:08 53.81950 13.94988 26774 ft 413 kts 186°
2026-05-06 17:08 53.79096 13.94617 26143 ft 410 kts 186°
2026-05-06 17:09 53.76265 13.94255 25520 ft 406 kts 186°
2026-05-06 17:09 53.73455 13.93905 24904 ft 403 kts 186°
2026-05-06 17:09 53.70671 13.93559 24300 ft 400 kts 186°
2026-05-06 17:09 53.67906 13.93216 23703 ft 396 kts 187°
2026-05-06 17:10 53.65167 13.92873 23089 ft 393 kts 187°
2026-05-06 17:10 53.62475 13.92364 22524 ft 386 kts 194°
2026-05-06 17:10 53.59917 13.91188 22043 ft 379 kts 199°
2026-05-06 17:10 53.57407 13.89886 21550 ft 375 kts 199°
2026-05-06 17:11 53.54921 13.88614 21088 ft 371 kts 199°
2026-05-06 17:11 53.52459 13.87365 20625 ft 368 kts 199°
2026-05-06 17:11 53.50022 13.86128 20166 ft 364 kts 199°
2026-05-06 17:11 53.47598 13.84895 19704 ft 361 kts 200°
2026-05-06 17:12 53.45229 13.83691 19255 ft 358 kts 200°
2026-05-06 17:12 53.42853 13.82485 18790 ft 356 kts 200°
2026-05-06 17:12 53.40484 13.81284 18327 ft 353 kts 200°
2026-05-06 17:12 53.38137 13.80095 17815 ft 351 kts 200°
2026-05-06 17:13 53.35811 13.78916 17339 ft 347 kts 200°
2026-05-06 17:13 53.33515 13.77751 16861 ft 344 kts 200°
2026-05-06 17:13 53.31236 13.76596 16392 ft 340 kts 200°
2026-05-06 17:13 53.29002 13.75468 15928 ft 338 kts 200°
2026-05-06 17:14 53.26732 13.74326 15453 ft 336 kts 200°
2026-05-06 17:14 53.24528 13.73219 14994 ft 334 kts 200°
2026-05-06 17:14 53.22280 13.72089 14523 ft 332 kts 200°
2026-05-06 17:14 53.20100 13.70995 14048 ft 331 kts 199°
2026-05-06 17:15 53.17893 13.69887 13582 ft 330 kts 199°
2026-05-06 17:15 53.15700 13.68789 13076 ft 328 kts 199°
2026-05-06 17:15 53.13513 13.67761 12597 ft 326 kts 195°
2026-05-06 17:15 53.11257 13.67328 12109 ft 327 kts 186°
2026-05-06 17:16 53.08986 13.67112 11611 ft 326 kts 187°
2026-05-06 17:16 53.06727 13.66890 11109 ft 324 kts 187°
2026-05-06 17:16 53.04479 13.66664 10603 ft 323 kts 187°
2026-05-06 17:16 53.02257 13.66441 10353 ft 314 kts 187°
2026-05-06 17:17 53.00122 13.66231 10228 ft 301 kts 187°
2026-05-06 17:17 52.98066 13.66031 10099 ft 290 kts 187°
2026-05-06 17:17 52.96076 13.65832 9876 ft 283 kts 188°
2026-05-06 17:17 52.94195 13.65095 9602 ft 276 kts 205°
2026-05-06 17:18 52.92573 13.63454 9469 ft 273 kts 222°
2026-05-06 17:18 52.91352 13.61121 9337 ft 271 kts 239°
2026-05-06 17:18 52.90439 13.58402 9207 ft 270 kts 242°
2026-05-06 17:18 52.89532 13.55672 9075 ft 270 kts 242°
2026-05-06 17:19 52.88627 13.52953 8947 ft 269 kts 242°
2026-05-06 17:19 52.87722 13.50240 8815 ft 269 kts 241°
2026-05-06 17:19 52.86818 13.47534 8686 ft 268 kts 241°
2026-05-06 17:19 52.85914 13.44832 8562 ft 268 kts 241°
2026-05-06 17:20 52.85011 13.42136 8430 ft 267 kts 241°
2026-05-06 17:20 52.84112 13.39451 8302 ft 267 kts 241°
2026-05-06 17:20 52.83209 13.36759 8173 ft 266 kts 241°
2026-05-06 17:20 52.82311 13.34083 8045 ft 266 kts 241°
2026-05-06 17:21 52.81415 13.31408 7921 ft 265 kts 241°
2026-05-06 17:21 52.80521 13.28743 7845 ft 265 kts 241°
2026-05-06 17:21 52.79628 13.26084 7849 ft 265 kts 241°
2026-05-06 17:21 52.78731 13.23421 7849 ft 265 kts 241°
2026-05-06 17:22 52.77833 13.20753 7849 ft 265 kts 241°
2026-05-06 17:22 52.76936 13.18090 7846 ft 266 kts 242°
2026-05-06 17:22 52.76044 13.15450 7840 ft 267 kts 242°
2026-05-06 17:22 52.75140 13.12780 7847 ft 267 kts 241°
2026-05-06 17:23 52.74235 13.10107 7854 ft 267 kts 241°
2026-05-06 17:23 52.73328 13.07440 7848 ft 267 kts 241°
2026-05-06 17:23 52.72418 13.04767 7842 ft 267 kts 241°
2026-05-06 17:23 52.71510 13.02096 7839 ft 267 kts 241°
2026-05-06 17:24 52.70602 12.99426 7846 ft 267 kts 241°
2026-05-06 17:24 52.69694 12.96751 7846 ft 267 kts 241°
2026-05-06 17:24 52.68784 12.94083 7846 ft 267 kts 241°
2026-05-06 17:24 52.67874 12.91415 7843 ft 267 kts 241°
2026-05-06 17:25 52.66964 12.88749 7847 ft 267 kts 241°
2026-05-06 17:25 52.66051 12.86085 7837 ft 267 kts 241°
2026-05-06 17:25 52.65139 12.83421 7837 ft 267 kts 241°
2026-05-06 17:25 52.64003 12.81014 7715 ft 268 kts 221°
2026-05-06 17:26 52.62363 12.79554 7595 ft 272 kts 197°
2026-05-06 17:26 52.60496 12.78989 7471 ft 273 kts 191°
2026-05-06 17:26 52.58618 12.78501 7347 ft 273 kts 191°
2026-05-06 17:26 52.56739 12.78021 7212 ft 273 kts 191°
2026-05-06 17:27 52.54885 12.77548 7090 ft 272 kts 191°
2026-05-06 17:27 52.53014 12.77064 6967 ft 271 kts 191°
2026-05-06 17:27 52.51147 12.76576 6843 ft 271 kts 191°
2026-05-06 17:27 52.49284 12.76091 6722 ft 271 kts 191°
2026-05-06 17:28 52.47425 12.75610 6599 ft 270 kts 191°
2026-05-06 17:28 52.45570 12.75131 6472 ft 270 kts 191°
2026-05-06 17:28 52.43710 12.74647 6350 ft 270 kts 192°
2026-05-06 17:28 52.41858 12.74166 6228 ft 269 kts 191°
2026-05-06 17:29 52.40008 12.73685 6107 ft 269 kts 191°
2026-05-06 17:29 52.38160 12.73206 5975 ft 268 kts 191°
2026-05-06 17:29 52.36318 12.72729 5988 ft 268 kts 191°
2026-05-06 17:29 52.34473 12.72253 5989 ft 268 kts 191°
2026-05-06 17:30 52.32627 12.71776 5993 ft 269 kts 191°
2026-05-06 17:30 52.30781 12.71299 5992 ft 268 kts 191°
2026-05-06 17:30 52.28963 12.70830 5993 ft 268 kts 191°
2026-05-06 17:30 52.27119 12.70353 5988 ft 268 kts 191°
2026-05-06 17:31 52.25278 12.69876 5990 ft 268 kts 191°
2026-05-06 17:31 52.23435 12.69398 5988 ft 268 kts 191°
2026-05-06 17:31 52.21571 12.69327 5982 ft 272 kts 172°
2026-05-06 17:31 52.19815 12.70503 5988 ft 276 kts 147°
2026-05-06 17:32 52.18505 12.72799 5928 ft 281 kts 121°
2026-05-06 17:32 52.17910 12.75814 5797 ft 282 kts 95°
2026-05-06 17:32 52.18162 12.78962 5668 ft 283 kts 70°
2026-05-06 17:32 52.18885 12.81943 5541 ft 282 kts 68°
2026-05-06 17:33 52.19614 12.84908 5415 ft 282 kts 68°
2026-05-06 17:33 52.20329 12.87832 5293 ft 281 kts 68°
2026-05-06 17:33 52.21046 12.90790 5169 ft 280 kts 68°
2026-05-06 17:33 52.21745 12.93752 5040 ft 280 kts 68°
2026-05-06 17:34 52.22455 12.96688 4909 ft 274 kts 68°
2026-05-06 17:34 52.23143 12.99510 4790 ft 261 kts 68°
2026-05-06 17:34 52.23797 13.02193 4655 ft 249 kts 68°
2026-05-06 17:34 52.24428 13.04791 4540 ft 245 kts 68°
2026-05-06 17:35 52.25054 13.07372 4401 ft 244 kts 68°
2026-05-06 17:35 52.25678 13.09946 4279 ft 243 kts 68°
2026-05-06 17:35 52.26299 13.12511 4155 ft 241 kts 68°
2026-05-06 17:36 52.27532 13.17609 3877 ft 241 kts 68°
2026-05-06 17:36 52.28140 13.20131 3597 ft 236 kts 68°
2026-05-06 17:36 52.28740 13.22619 3297 ft 234 kts 68°
2026-05-06 17:36 52.29332 13.25077 2977 ft 231 kts 68°
2026-05-06 17:37 52.29907 13.27472 2673 ft 222 kts 68°
2026-05-06 17:37 52.30458 13.29765 2384 ft 210 kts 68°
2026-05-06 17:37 52.30970 13.31898 2122 ft 194 kts 68°
2026-05-06 17:37 52.31447 13.33888 1865 ft 183 kts 68°
2026-05-06 17:38 52.31896 13.35765 1619 ft 171 kts 68°
2026-05-06 17:38 52.32314 13.37512 1387 ft 160 kts 68°
2026-05-06 17:38 52.32707 13.39152 1170 ft 150 kts 68°
2026-05-06 17:38 52.33072 13.40681 985 ft 140 kts 68°
2026-05-06 17:39 52.33424 13.42154 805 ft 138 kts 68°
2026-05-06 17:39 52.33770 13.43609 620 ft 137 kts 68°
2026-05-06 17:39 52.34113 13.45049 463 ft 135 kts 68°
2026-05-06 17:39 52.34459 13.46479 281 ft 135 kts 68°
2026-05-06 17:40 52.34792 13.47877 164 ft 122 kts 70°
2026-05-06 17:40 52.35056 13.49008 154 ft 85 kts 68°
2026-05-06 17:40 52.35208 13.49642 154 ft 32 kts 69°
2026-05-06 17:40 52.35290 13.49866 154 ft 22 kts 50°
2026-05-06 17:41 52.35371 13.49988 154 ft 10 kts 39°
2026-05-06 17:41 52.35426 13.50061 154 ft 11 kts 39°
2026-05-06 17:41 52.35482 13.50135 154 ft 11 kts 39°
2026-05-06 17:41 52.35542 13.50210 154 ft 11 kts 30°
2026-05-06 17:42 52.35549 13.50216 154 ft 1 kts 27°
2026-05-06 17:42 52.35559 13.50225 154 ft 3 kts 30°
2026-05-06 17:42 52.35606 13.50319 154 ft 18 kts 70°
2026-05-06 17:42 52.35642 13.50490 155 ft 16 kts 69°
2026-05-06 17:43 52.35686 13.50659 155 ft 16 kts 67°
2026-05-06 17:43 52.35733 13.50824 155 ft 12 kts 46°
2026-05-06 17:43 52.35816 13.50799 155 ft 15 kts 338°
2026-05-06 17:43 52.35908 13.50786 155 ft 14 kts 51°
2026-05-06 17:44 52.35944 13.50940 155 ft 15 kts 69°
2026-05-06 17:44 52.35982 13.51100 155 ft 16 kts 68°
2026-05-06 17:44 52.36023 13.51268 155 ft 16 kts 69°